| time (UTC) | temp F | wind direction | speed MPH | gust MPH | rain 1hr in | rain 24hr in | rain mn in | humidity % | barometer mb |
| 20260508060035 | 52 | 32 | 0.0 | 1.0 | 0.00 | 0.80 | 0.00 | 97 | 1012.1 |
| 20260508055533 | 53 | 32 | 0.0 | 1.0 | 0.00 | 0.80 | 0.00 | 97 | 1012.0 |
| 20260508055032 | 53 | 283 | 0.0 | 2.0 | 0.00 | 0.80 | 0.00 | 97 | 1012.1 |
| 20260508054532 | 53 | 343 | 0.0 | 2.0 | 0.00 | 0.80 | 0.00 | 97 | 1011.9 |
| 20260508054031 | 53 | 78 | 0.0 | 1.0 | 0.00 | 0.80 | 0.00 | 97 | 1012.2 |
| 20260508053531 | 53 | 78 | 0.0 | 1.0 | 0.00 | 0.80 | 0.00 | 97 | 1012.2 |
| 20260508053031 | 53 | 78 | 0.0 | 2.0 | 0.00 | 0.80 | 0.00 | 97 | 1012.1 |
| 20260508052531 | 53 | 78 | 0.0 | 2.0 | 0.00 | 0.80 | 0.00 | 97 | 1012.2 |
| 20260508052030 | 53 | 78 | 0.0 | 2.0 | 0.00 | 0.80 | 0.00 | 97 | 1012.3 |
| 20260508051029 | 53 | 238 | 0.0 | 2.0 | 0.00 | 0.80 | 0.00 | 97 | 1012.5 |
| 20260508050528 | 53 | 2 | 0.0 | 2.0 | 0.00 | 0.80 | 0.00 | 97 | 1012.3 |
| 20260508050028 | 53 | 1 | 0.0 | 1.0 | 0.00 | 0.80 | 0.00 | 97 | 1012.2 |
| 20260508045529 | 53 | 1 | 0.0 | 1.0 | 0.00 | 0.80 | 0.00 | 97 | 1012.2 |
| 20260508045027 | 53 | 300 | 0.0 | 1.0 | 0.00 | 0.80 | 0.00 | 97 | 1012.1 |
| 20260508044527 | 53 | 300 | 0.0 | 1.0 | 0.00 | 0.80 | 0.00 | 97 | 1011.9 |
| 20260508044026 | 53 | 300 | 0.0 | 2.0 | 0.00 | 0.80 | 0.00 | 97 | 1011.7 |
| 20260508043525 | 53 | 348 | 0.0 | 2.0 | 0.00 | 0.80 | 0.00 | 97 | 1011.5 |
| 20260508043048 | 53 | 79 | 0.0 | 3.0 | 0.01 | 0.80 | 0.00 | 97 | 1011.6 |
| 20260508042525 | 53 | 3 | 0.0 | 1.0 | 0.04 | 0.80 | 0.00 | 97 | 1011.7 |
| 20260508042024 | 53 | 3 | 0.0 | 2.0 | 0.08 | 0.80 | 0.00 | 97 | 1011.7 |
| 20260508041022 | 53 | 322 | 0.0 | 4.0 | 0.08 | 0.80 | 0.00 | 96 | 1011.2 |
| 20260508040523 | 53 | 323 | 0.0 | 4.0 | 0.08 | 0.80 | 0.00 | 96 | 1011.4 |
| 20260508040023 | 53 | 250 | 0.0 | 1.0 | 0.08 | 0.80 | 0.00 | 96 | 1011.4 |
| 20260508035519 | 53 | 250 | 0.0 | 1.0 | 0.08 | 0.80 | 0.80 | 96 | 1011.3 |
| 20260508035019 | 53 | 250 | 0.0 | 1.0 | 0.08 | 0.80 | 0.80 | 96 | 1011.4 |
| 20260508034520 | 53 | 250 | 0.0 | 1.0 | 0.08 | 0.80 | 0.80 | 95 | 1011.5 |
| 20260508034020 | 54 | 250 | 0.0 | 4.0 | 0.08 | 0.80 | 0.80 | 95 | 1011.8 |
| 20260508033516 | 54 | 250 | 0.0 | 4.0 | 0.08 | 0.80 | 0.80 | 94 | 1011.6 |
| 20260508033015 | 54 | 221 | 0.0 | 7.0 | 0.08 | 0.80 | 0.80 | 94 | 1012.0 |
| 20260508032515 | 54 | 247 | 3.0 | 7.0 | 0.06 | 0.78 | 0.78 | 93 | 1012.1 |
| 20260508032015 | 55 | 348 | 0.0 | 3.0 | 0.00 | 0.72 | 0.72 | 92 | 1011.1 |
| 20260508031016 | 55 | 65 | 0.0 | 7.0 | 0.00 | 0.72 | 0.72 | 92 | 1010.7 |
| 20260508030520 | 55 | 66 | 0.0 | 5.0 | 0.00 | 0.72 | 0.72 | 92 | 1011.0 |
| 20260508030022 | 55 | 355 | 1.0 | 8.0 | 0.00 | 0.72 | 0.72 | 92 | 1011.1 |
| 20260508025515 | 55 | 63 | 2.0 | 11.0 | 0.00 | 0.72 | 0.72 | 92 | 1011.2 |
| 20260508025015 | 55 | 58 | 4.0 | 11.0 | 0.00 | 0.72 | 0.72 | 92 | 1011.3 |
| 20260508024514 | 55 | 68 | 2.0 | 6.0 | 0.00 | 0.72 | 0.72 | 93 | 1011.1 |
| 20260508024013 | 55 | 63 | 2.0 | 6.0 | 0.00 | 0.72 | 0.72 | 94 | 1011.1 |
| 20260508023514 | 55 | 8 | 1.0 | 10.0 | 0.00 | 0.72 | 0.72 | 94 | 1010.9 |
| 20260508023017 | 55 | 67 | 5.0 | 10.0 | 0.00 | 0.72 | 0.72 | 94 | 1010.9 |
| 20260508022516 | 55 | 17 | 3.0 | 8.0 | 0.00 | 0.72 | 0.72 | 95 | 1010.7 |
| 20260508022013 | 55 | 72 | 3.0 | 8.0 | 0.00 | 0.72 | 0.72 | 95 | 1010.6 |
| 20260508021010 | 55 | 54 | 4.0 | 12.0 | 0.00 | 0.72 | 0.72 | 95 | 1010.7 |
| 20260508020512 | 55 | 33 | 6.0 | 10.0 | 0.00 | 0.72 | 0.72 | 95 | 1010.4 |
| 20260508020009 | 55 | 336 | 3.0 | 9.0 | 0.00 | 0.72 | 0.72 | 95 | 1010.4 |
| 20260508015507 | 56 | 68 | 3.0 | 8.0 | 0.00 | 0.72 | 0.72 | 95 | 1010.4 |
| 20260508015006 | 56 | 349 | 3.0 | 8.0 | 0.00 | 0.72 | 0.72 | 95 | 1010.2 |
| 20260508014508 | 56 | 66 | 4.0 | 11.0 | 0.00 | 0.72 | 0.72 | 95 | 1010.2 |
| 20260508014006 | 56 | 13 | 5.0 | 11.0 | 0.00 | 0.72 | 0.72 | 94 | 1010.1 |
| 20260508013510 | 56 | 42 | 4.0 | 10.0 | 0.00 | 0.72 | 0.72 | 94 | 1009.8 |
| 20260508013005 | 56 | 52 | 5.0 | 10.0 | 0.00 | 0.72 | 0.72 | 94 | 1009.7 |
| 20260508012504 | 56 | 11 | 4.0 | 11.0 | 0.00 | 0.72 | 0.72 | 94 | 1009.8 |
| 20260508012004 | 56 | 45 | 5.0 | 11.0 | 0.00 | 0.72 | 0.72 | 93 | 1009.8 |
| 20260508011003 | 56 | 49 | 4.0 | 13.0 | 0.00 | 0.72 | 0.72 | 94 | 1009.6 |
| 20260508010502 | 57 | 24 | 2.0 | 10.0 | 0.00 | 0.72 | 0.72 | 94 | 1009.4 |
| 20260508010002 | 57 | 38 | 4.0 | 10.0 | 0.00 | 0.72 | 0.72 | 94 | 1009.2 |
| 20260508005503 | 57 | 15 | 2.0 | 12.0 | 0.00 | 0.72 | 0.72 | 94 | 1008.9 |
| 20260508005101 | 57 | 46 | 5.0 | 12.0 | 0.00 | 0.72 | 0.72 | 94 | 1009.0 |
| 20260508004604 | 57 | 30 | 5.0 | 12.0 | 0.00 | 0.72 | 0.72 | 94 | 1009.0 |
| 20260508004059 | 57 | 322 | 3.0 | 11.0 | 0.00 | 0.72 | 0.72 | 95 | 1008.9 |
| 20260508003602 | 57 | 51 | 5.0 | 9.0 | 0.00 | 0.72 | 0.72 | 95 | 1008.8 |
| 20260508003056 | 57 | 55 | 5.0 | 12.0 | 0.00 | 0.72 | 0.72 | 95 | 1008.7 |
| 20260508002556 | 58 | 359 | 5.0 | 12.0 | 0.00 | 0.72 | 0.72 | 95 | 1008.6 |
| 20260508002054 | 58 | 67 | 3.0 | 12.0 | 0.00 | 0.72 | 0.72 | 95 | 1008.8 |
| 20260508001052 | 59 | 347 | 3.0 | 13.0 | 0.00 | 0.72 | 0.72 | 94 | 1008.6 |
| 20260508000552 | 59 | 262 | 3.0 | 13.0 | 0.00 | 0.72 | 0.72 | 94 | 1008.6 |
| 20260508000049 | 60 | 53 | 3.0 | 13.0 | 0.00 | 0.72 | 0.72 | 94 | 1008.7 |
| 20260507235548 | 61 | 41 | 4.0 | 13.0 | 0.00 | 0.73 | 0.72 | 93 | 1008.7 |
| 20260507235050 | 62 | 360 | 3.0 | 13.0 | 0.00 | 0.73 | 0.72 | 93 | 1008.6 |
| 20260507234547 | 63 | 3 | 3.0 | 12.0 | 0.00 | 0.73 | 0.72 | 92 | 1008.3 |
| 20260507234044 | 65 | 350 | 5.0 | 18.0 | 0.00 | 0.73 | 0.72 | 92 | 1007.9 |
| 20260507233542 | 68 | 53 | 6.0 | 18.0 | 0.00 | 0.73 | 0.72 | 92 | 1007.6 |
| 20260507233042 | 69 | 283 | 0.0 | 1.0 | 0.00 | 0.73 | 0.72 | 95 | 1007.1 |
| 20260507232544 | 70 | 283 | 0.0 | 1.0 | 0.00 | 0.73 | 0.72 | 94 | 1006.9 |
| 20260507232041 | 70 | 283 | 0.0 | 2.0 | 0.00 | 0.73 | 0.72 | 93 | 1006.8 |
| 20260507231043 | 70 | 254 | 0.0 | 5.0 | 0.00 | 0.73 | 0.72 | 93 | 1006.7 |
| 20260507230543 | 70 | 253 | 1.0 | 5.0 | 0.00 | 0.73 | 0.72 | 93 | 1006.7 |
| 20260507230041 | 70 | 246 | 0.0 | 6.0 | 0.00 | 0.73 | 0.72 | 94 | 1006.8 |
| 20260507225541 | 70 | 249 | 1.0 | 5.0 | 0.00 | 0.73 | 0.72 | 94 | 1006.6 |
| 20260507225042 | 69 | 291 | 1.0 | 7.0 | 0.00 | 0.73 | 0.72 | 95 | 1006.6 |
| 20260507224541 | 69 | 257 | 2.0 | 7.0 | 0.00 | 0.73 | 0.72 | 95 | 1006.8 |
| 20260507224041 | 69 | 224 | 2.0 | 5.0 | 0.00 | 0.73 | 0.72 | 95 | 1006.9 |
| 20260507223543 | 69 | 295 | 1.0 | 6.0 | 0.00 | 0.73 | 0.72 | 94 | 1006.9 |
| 20260507223041 | 69 | 274 | 1.0 | 7.0 | 0.00 | 0.73 | 0.72 | 94 | 1006.9 |
| 20260507222541 | 69 | 263 | 3.0 | 9.0 | 0.00 | 0.73 | 0.72 | 94 | 1007.0 |
| 20260507222040 | 69 | 262 | 4.0 | 9.0 | 0.00 | 0.73 | 0.72 | 93 | 1007.0 |
| 20260507221043 | 70 | 300 | 4.0 | 8.0 | 0.00 | 0.73 | 0.72 | 92 | 1006.9 |
| 20260507220543 | 70 | 243 | 3.0 | 11.0 | 0.00 | 0.73 | 0.72 | 91 | 1007.0 |
| 20260507220040 | 70 | 282 | 2.0 | 7.0 | 0.00 | 0.73 | 0.72 | 91 | 1007.0 |
| 20260507215540 | 70 | 268 | 2.0 | 9.0 | 0.00 | 0.73 | 0.72 | 90 | 1007.0 |
| 20260507215040 | 71 | 227 | 3.0 | 12.0 | 0.00 | 0.73 | 0.72 | 89 | 1006.7 |
| 20260507214540 | 71 | 260 | 5.0 | 12.0 | 0.00 | 0.73 | 0.72 | 89 | 1006.6 |
| 20260507214039 | 71 | 222 | 4.0 | 17.0 | 0.00 | 0.73 | 0.72 | 88 | 1006.5 |
| 20260507213541 | 71 | 202 | 6.0 | 17.0 | 0.00 | 0.73 | 0.72 | 88 | 1006.5 |
| 20260507213041 | 72 | 236 | 4.0 | 10.0 | 0.00 | 0.73 | 0.72 | 89 | 1006.2 |
| 20260507212539 | 72 | 266 | 3.0 | 10.0 | 0.00 | 0.73 | 0.72 | 89 | 1006.2 |
| 20260507212038 | 72 | 236 | 4.0 | 12.0 | 0.00 | 0.73 | 0.72 | 88 | 1006.2 |
| 20260507211036 | 72 | 198 | 3.0 | 8.0 | 0.00 | 0.73 | 0.72 | 89 | 1006.2 |
| 20260507210537 | 71 | 236 | 2.0 | 8.0 | 0.00 | 0.73 | 0.72 | 91 | 1006.1 |
| 20260507210037 | 71 | 167 | 1.0 | 9.0 | 0.00 | 0.73 | 0.72 | 91 | 1006.2 |
| 20260507205535 | 70 | 230 | 1.0 | 9.0 | 0.00 | 0.73 | 0.72 | 90 | 1006.3 |
| 20260507205034 | 70 | 274 | 3.0 | 8.0 | 0.00 | 0.73 | 0.72 | 90 | 1006.4 |
| 20260507204535 | 71 | 245 | 2.0 | 8.0 | 0.00 | 0.73 | 0.72 | 89 | 1006.4 |
| 20260507204034 | 71 | 287 | 3.0 | 10.0 | 0.00 | 0.73 | 0.72 | 89 | 1006.4 |
| 20260507203534 | 71 | 294 | 3.0 | 11.0 | 0.00 | 0.73 | 0.72 | 89 | 1006.4 |
| 20260507203035 | 71 | 248 | 4.0 | 11.0 | 0.00 | 0.73 | 0.72 | 88 | 1006.6 |
| 20260507202534 | 71 | 264 | 3.0 | 8.0 | 0.00 | 0.73 | 0.72 | 88 | 1006.6 |
| 20260507202032 | 71 | 222 | 3.0 | 9.0 | 0.00 | 0.73 | 0.72 | 87 | 1006.7 |
| 20260507201032 | 72 | 236 | 3.0 | 9.0 | 0.00 | 0.73 | 0.72 | 89 | 1007.0 |
| 20260507200537 | 72 | 266 | 2.0 | 14.0 | 0.00 | 0.73 | 0.72 | 90 | 1006.9 |
| 20260507200034 | 72 | 217 | 3.0 | 11.0 | 0.00 | 0.73 | 0.72 | 90 | 1006.9 |
| 20260507195531 | 72 | 226 | 2.0 | 11.0 | 0.00 | 0.73 | 0.72 | 90 | 1006.9 |
| 20260507195032 | 73 | 211 | 2.0 | 9.0 | 0.00 | 0.73 | 0.72 | 91 | 1007.0 |
| 20260507194541 | 72 | 270 | 1.0 | 9.0 | 0.00 | 0.73 | 0.72 | 92 | 1007.0 |
| 20260507194028 | 71 | 261 | 3.0 | 11.0 | 0.00 | 0.73 | 0.72 | 91 | 1007.1 |
| 20260507193528 | 71 | 203 | 5.0 | 11.0 | 0.00 | 0.73 | 0.72 | 91 | 1007.2 |
| 20260507193031 | 71 | 267 | 5.0 | 10.0 | 0.00 | 0.73 | 0.72 | 91 | 1007.3 |
| 20260507192528 | 71 | 257 | 4.0 | 13.0 | 0.00 | 0.73 | 0.72 | 91 | 1007.3 |
| 20260507192026 | 71 | 229 | 7.0 | 13.0 | 0.01 | 0.73 | 0.72 | 90 | 1007.6 |
| 20260507191026 | 72 | 246 | 1.0 | 11.0 | 0.01 | 0.73 | 0.72 | 93 | 1007.7 |
| 20260507190524 | 71 | 250 | 3.0 | 11.0 | 0.01 | 0.73 | 0.72 | 93 | 1007.9 |
| 20260507190023 | 71 | 238 | 4.0 | 10.0 | 0.01 | 0.73 | 0.72 | 94 | 1008.0 |
| 20260507185522 | 71 | 237 | 4.0 | 13.0 | 0.02 | 0.73 | 0.72 | 94 | 1008.1 |
| 20260507185022 | 70 | 262 | 6.0 | 13.0 | 0.02 | 0.73 | 0.72 | 95 | 1008.2 |
| 20260507184522 | 69 | 238 | 4.0 | 13.0 | 0.03 | 0.73 | 0.72 | 96 | 1008.2 |
| 20260507184021 | 69 | 241 | 4.0 | 11.0 | 0.05 | 0.73 | 0.72 | 96 | 1008.3 |
| 20260507183522 | 69 | 277 | 3.0 | 10.0 | 0.07 | 0.73 | 0.72 | 96 | 1008.2 |
| 20260507183033 | 69 | 217 | 3.0 | 9.0 | 0.09 | 0.73 | 0.72 | 96 | 1008.3 |
| 20260507182520 | 68 | 294 | 4.0 | 11.0 | 0.10 | 0.73 | 0.72 | 96 | 1008.5 |
| 20260507182019 | 68 | 90 | 2.0 | 11.0 | 0.11 | 0.72 | 0.71 | 96 | 1008.6 |
| 20260507181022 | 68 | 245 | 4.0 | 11.0 | 0.12 | 0.72 | 0.71 | 95 | 1008.5 |
| 20260507180520 | 68 | 219 | 3.0 | 12.0 | 0.13 | 0.72 | 0.71 | 94 | 1008.7 |
| 20260507180020 | 68 | 257 | 6.0 | 13.0 | 0.13 | 0.72 | 0.71 | 94 | 1008.8 |
| 20260507175520 | 69 | 264 | 4.0 | 13.0 | 0.12 | 0.71 | 0.70 | 96 | 1009.0 |
| 20260507175018 | 69 | 251 | 4.0 | 17.0 | 0.12 | 0.71 | 0.70 | 96 | 1009.1 |
| 20260507174520 | 69 | 229 | 2.0 | 17.0 | 0.11 | 0.70 | 0.69 | 97 | 1009.4 |
| 20260507174017 | 69 | 195 | 4.0 | 16.0 | 0.11 | 0.70 | 0.69 | 97 | 1009.7 |
| 20260507173520 | 69 | 302 | 3.0 | 9.0 | 0.09 | 0.67 | 0.66 | 97 | 1009.8 |
| 20260507173018 | 69 | 225 | 2.0 | 8.0 | 0.08 | 0.65 | 0.64 | 97 | 1009.8 |
| 20260507172517 | 70 | 256 | 3.0 | 8.0 | 0.08 | 0.64 | 0.63 | 96 | 1009.7 |
| 20260507172017 | 69 | 245 | 2.0 | 9.0 | 0.09 | 0.63 | 0.62 | 96 | 1009.8 |
| 20260507171016 | 70 | 205 | 3.0 | 7.0 | 0.07 | 0.61 | 0.60 | 96 | 1009.9 |
| 20260507170515 | 70 | 203 | 1.0 | 7.0 | 0.06 | 0.59 | 0.57 | 96 | 1010.0 |
| 20260507170015 | 70 | 233 | 3.0 | 7.0 | 0.06 | 0.59 | 0.57 | 96 | 1009.9 |
| 20260507165514 | 70 | 248 | 2.0 | 6.0 | 0.06 | 0.59 | 0.57 | 96 | 1010.0 |
| 20260507165014 | 70 | 288 | 2.0 | 6.0 | 0.06 | 0.59 | 0.57 | 96 | 1009.8 |
| 20260507164514 | 70 | 226 | 2.0 | 4.0 | 0.06 | 0.59 | 0.57 | 96 | 1009.8 |
| 20260507164014 | 70 | 243 | 0.0 | 9.0 | 0.06 | 0.59 | 0.57 | 96 | 1009.8 |
| 20260507163514 | 70 | 271 | 3.0 | 7.0 | 0.06 | 0.59 | 0.57 | 96 | 1009.9 |
| 20260507163014 | 71 | 217 | 2.0 | 8.0 | 0.05 | 0.57 | 0.56 | 96 | 1010.1 |
| 20260507162515 | 71 | 288 | 2.0 | 8.0 | 0.04 | 0.56 | 0.56 | 96 | 1010.1 |
| 20260507162015 | 71 | 238 | 3.0 | 8.0 | 0.02 | 0.55 | 0.54 | 96 | 1010.3 |
| 20260507161013 | 71 | 228 | 3.0 | 11.0 | 0.01 | 0.54 | 0.53 | 95 | 1010.3 |
| 20260507160516 | 71 | 286 | 2.0 | 11.0 | 0.01 | 0.54 | 0.53 | 94 | 1010.3 |
| 20260507160025 | 72 | 248 | 2.0 | 9.0 | 0.00 | 0.53 | 0.52 | 94 | 1010.2 |
| 20260507155517 | 72 | 327 | 4.0 | 13.0 | 0.00 | 0.53 | 0.52 | 94 | 1010.3 |
| 20260507155012 | 72 | 202 | 5.0 | 13.0 | 0.00 | 0.53 | 0.52 | 94 | 1010.2 |
| 20260507154512 | 72 | 227 | 3.0 | 10.0 | 0.00 | 0.53 | 0.52 | 94 | 1010.2 |
| 20260507154011 | 72 | 259 | 3.0 | 11.0 | 0.00 | 0.53 | 0.52 | 94 | 1010.1 |
| 20260507153511 | 72 | 266 | 4.0 | 11.0 | 0.00 | 0.53 | 0.52 | 95 | 1010.0 |
| 20260507153011 | 72 | 294 | 4.0 | 11.0 | 0.00 | 0.53 | 0.52 | 95 | 1009.9 |
| 20260507152511 | 72 | 250 | 3.0 | 11.0 | 0.00 | 0.53 | 0.52 | 95 | 1010.0 |
| 20260507152011 | 72 | 290 | 3.0 | 7.0 | 0.00 | 0.53 | 0.52 | 95 | 1010.0 |
| 20260507151010 | 72 | 289 | 1.0 | 8.0 | 0.00 | 0.53 | 0.52 | 95 | 1009.7 |
| 20260507150513 | 72 | 282 | 2.0 | 8.0 | 0.00 | 0.53 | 0.52 | 96 | 1009.8 |
| 20260507150013 | 72 | 164 | 1.0 | 7.0 | 0.00 | 0.53 | 0.52 | 96 | 1009.7 |
| 20260507145509 | 72 | 234 | 0.0 | 8.0 | 0.00 | 0.53 | 0.52 | 96 | 1009.8 |
| 20260507145006 | 72 | 208 | 2.0 | 8.0 | 0.00 | 0.53 | 0.52 | 96 | 1009.8 |
| 20260507144509 | 72 | 289 | 3.0 | 9.0 | 0.00 | 0.53 | 0.52 | 96 | 1009.7 |
| 20260507144007 | 71 | 243 | 3.0 | 9.0 | 0.00 | 0.53 | 0.52 | 97 | 1009.8 |
| 20260507143505 | 71 | 246 | 1.0 | 10.0 | 0.00 | 0.53 | 0.52 | 97 | 1009.9 |
| 20260507143005 | 71 | 202 | 3.0 | 7.0 | 0.00 | 0.53 | 0.52 | 97 | 1010.0 |
| 20260507142505 | 71 | 270 | 3.0 | 7.0 | 0.01 | 0.53 | 0.52 | 97 | 1009.7 |
| 20260507142004 | 71 | 250 | 2.0 | 6.0 | 0.01 | 0.53 | 0.52 | 98 | 1009.4 |
| 20260507141006 | 71 | 245 | 1.0 | 5.0 | 0.01 | 0.53 | 0.52 | 98 | 1009.1 |
| 20260507140503 | 71 | 231 | 0.0 | 5.0 | 0.01 | 0.53 | 0.52 | 98 | 1009.1 |
| 20260507140000 | 70 | 244 | 0.0 | 3.0 | 0.01 | 0.53 | 0.52 | 98 | 1009.5 |
| 20260507135600 | 70 | 114 | 0.0 | 6.0 | 0.01 | 0.53 | 0.52 | 98 | 1009.7 |
| 20260507135058 | 70 | 264 | 2.0 | 7.0 | 0.01 | 0.53 | 0.52 | 98 | 1010.0 |
| 20260507134601 | 70 | 244 | 2.0 | 10.0 | 0.01 | 0.53 | 0.52 | 98 | 1010.2 |
| 20260507134056 | 70 | 242 | 2.0 | 10.0 | 0.01 | 0.53 | 0.52 | 98 | 1010.5 |
| 20260507133556 | 70 | 240 | 1.0 | 5.0 | 0.01 | 0.53 | 0.52 | 98 | 1010.6 |
| 20260507133101 | 70 | 250 | 0.0 | 4.0 | 0.01 | 0.53 | 0.52 | 98 | 1010.7 |
| 20260507132554 | 70 | 297 | 1.0 | 6.0 | 0.02 | 0.53 | 0.52 | 98 | 1010.8 |
| 20260507132054 | 70 | 233 | 2.0 | 7.0 | 0.02 | 0.52 | 0.51 | 98 | 1010.8 |
| 20260507131655 | 69 | 276 | 1.0 | 5.0 | 0.02 | 0.52 | 0.51 | 98 | 1010.9 |
| 20260507131055 | 69 | 219 | 0.0 | 6.0 | 0.02 | 0.52 | 0.51 | 98 | 1010.8 |
| 20260507130555 | 69 | 283 | 0.0 | 6.0 | 0.02 | 0.52 | 0.51 | 98 | 1011.1 |
| 20260507130056 | 69 | 259 | 0.0 | 4.0 | 0.04 | 0.52 | 0.51 | 98 | 1011.1 |
| 20260507125554 | 69 | 157 | 0.0 | 6.0 | 0.04 | 0.52 | 0.51 | 98 | 1011.0 |
| 20260507125054 | 69 | 252 | 1.0 | 6.0 | 0.05 | 0.52 | 0.51 | 98 | 1011.0 |
| 20260507124556 | 69 | 231 | 1.0 | 4.0 | 0.06 | 0.52 | 0.51 | 98 | 1011.2 |
| 20260507124054 | 69 | 148 | 0.0 | 4.0 | 0.06 | 0.52 | 0.51 | 99 | 1011.3 |
| 20260507123554 | 69 | 98 | 0.0 | 4.0 | 0.06 | 0.52 | 0.51 | 99 | 1011.3 |
| 20260507123111 | 69 | 193 | 1.0 | 4.0 | 0.08 | 0.52 | 0.51 | 98 | 1011.3 |
| 20260507122553 | 69 | 316 | 0.0 | 4.0 | 0.13 | 0.51 | 0.50 | 98 | 1011.8 |
| 20260507122056 | 69 | 249 | 1.0 | 5.0 | 0.15 | 0.51 | 0.50 | 98 | 1012.1 |
| 20260507121653 | 69 | 279 | 1.0 | 5.0 | 0.24 | 0.50 | 0.49 | 98 | 1012.4 |
| 20260507121054 | 69 | 230 | 0.0 | 4.0 | 0.24 | 0.50 | 0.49 | 98 | 1012.4 |
| 20260507120553 | 69 | 261 | 2.0 | 4.0 | 0.25 | 0.50 | 0.49 | 98 | 1012.6 |
| 20260507120053 | 69 | 250 | 2.0 | 4.0 | 0.24 | 0.49 | 0.48 | 98 | 1012.7 |
| 20260507115553 | 69 | 252 | 1.0 | 4.0 | 0.23 | 0.48 | 0.47 | 98 | 1012.6 |
| 20260507115053 | 69 | 264 | 2.0 | 6.0 | 0.23 | 0.48 | 0.47 | 98 | 1012.6 |
| 20260507114556 | 69 | 257 | 2.0 | 0.0 | 0.00 | 0.00 | 0.46 | 98 | 1012.6 |
| 20260507114054 | 69 | 224 | 2.0 | 11.0 | 0.21 | 0.46 | 0.45 | 98 | 1012.5 |
| 20260507113552 | 69 | 300 | 2.0 | 12.0 | 0.21 | 0.46 | 0.45 | 98 | 1012.6 |
| 20260507113052 | 69 | 249 | 3.0 | 8.0 | 0.20 | 0.45 | 0.44 | 98 | 1012.7 |
| 20260507112552 | 69 | 245 | 2.0 | 8.0 | 0.15 | 0.40 | 0.39 | 98 | 1012.6 |
| 20260507112051 | 69 | 225 | 1.0 | 3.0 | 0.13 | 0.37 | 0.36 | 98 | 1012.8 |
| 20260507111652 | 69 | 249 | 1.0 | 2.0 | 0.03 | 0.27 | 0.26 | 98 | 1012.7 |
| 20260507111050 | 69 | 222 | 0.0 | 3.0 | 0.02 | 0.26 | 0.25 | 98 | 1012.5 |
| 20260507110551 | 69 | 277 | 0.0 | 3.0 | 0.02 | 0.26 | 0.25 | 98 | 1012.4 |
| 20260507110052 | 69 | 236 | 0.0 | 4.0 | 0.01 | 0.25 | 0.24 | 98 | 1012.3 |
| 20260507105550 | 69 | 228 | 1.0 | 4.0 | 0.01 | 0.25 | 0.24 | 98 | 1012.1 |
| 20260507105049 | 69 | 269 | 1.0 | 2.0 | 0.01 | 0.25 | 0.24 | 98 | 1011.9 |
| 20260507104557 | 69 | 264 | 0.0 | 4.0 | 0.01 | 0.25 | 0.24 | 98 | 1011.7 |
| 20260507104056 | 69 | 266 | 1.0 | 4.0 | 0.01 | 0.25 | 0.24 | 98 | 1011.7 |
| 20260507103551 | 69 | 264 | 1.0 | 4.0 | 0.01 | 0.25 | 0.24 | 98 | 1011.8 |
| 20260507103050 | 69 | 250 | 0.0 | 2.0 | 0.01 | 0.25 | 0.24 | 98 | 1011.8 |
| 20260507102549 | 69 | 276 | 0.0 | 2.0 | 0.01 | 0.25 | 0.24 | 98 | 1011.7 |
| 20260507102054 | 69 | 276 | 1.0 | 4.0 | 0.01 | 0.25 | 0.24 | 98 | 1011.8 |
| 20260507101649 | 69 | 253 | 0.0 | 3.0 | 0.00 | 0.24 | 0.23 | 98 | 1011.8 |
| 20260507101050 | 69 | 274 | 1.0 | 3.0 | 0.00 | 0.24 | 0.23 | 98 | 1011.8 |
| 20260507100551 | 69 | 251 | 0.0 | 3.0 | 0.00 | 0.24 | 0.23 | 98 | 1011.7 |
| 20260507100057 | 69 | 228 | 0.0 | 4.0 | 0.00 | 0.24 | 0.23 | 98 | 1011.7 |
| 20260507095551 | 69 | 239 | 0.0 | 4.0 | 0.00 | 0.25 | 0.23 | 98 | 1011.7 |
| 20260507095050 | 69 | 259 | 0.0 | 3.0 | 0.00 | 0.25 | 0.23 | 98 | 1011.6 |
| 20260507094551 | 69 | 229 | 0.0 | 3.0 | 0.00 | 0.25 | 0.23 | 98 | 1011.8 |
| 20260507094050 | 69 | 228 | 1.0 | 3.0 | 0.00 | 0.25 | 0.23 | 98 | 1011.8 |
| 20260507093550 | 69 | 243 | 0.0 | 4.0 | 0.00 | 0.25 | 0.23 | 98 | 1011.7 |
| 20260507093050 | 69 | 271 | 1.0 | 5.0 | 0.00 | 0.25 | 0.23 | 98 | 1011.9 |
| 20260507092551 | 69 | 243 | 2.0 | 5.0 | 0.00 | 0.25 | 0.23 | 98 | 1011.8 |
| 20260507092049 | 69 | 306 | 2.0 | 4.0 | 0.00 | 0.25 | 0.23 | 98 | 1012.0 |
| 20260507091650 | 69 | 250 | 0.0 | 2.0 | 0.01 | 0.25 | 0.23 | 98 | 1011.7 |
| 20260507091048 | 69 | 257 | 0.0 | 2.0 | 0.01 | 0.25 | 0.23 | 98 | 1011.6 |
| 20260507090547 | 68 | 273 | 0.0 | 2.0 | 0.02 | 0.25 | 0.23 | 98 | 1011.1 |
| 20260507090057 | 68 | 298 | 0.0 | 1.0 | 0.02 | 0.25 | 0.23 | 98 | 1011.0 |
| 20260507085547 | 68 | 107 | 0.0 | 0.0 | 0.03 | 0.25 | 0.23 | 98 | 1010.9 |
| 20260507085047 | 68 | 107 | 0.0 | 2.0 | 0.05 | 0.25 | 0.23 | 98 | 1010.8 |
| 20260507084553 | 68 | 108 | 0.0 | 2.0 | 0.07 | 0.25 | 0.23 | 98 | 1010.7 |
| 20260507084045 | 68 | 359 | 0.0 | 1.0 | 0.08 | 0.25 | 0.23 | 98 | 1010.8 |
| 20260507083544 | 68 | 359 | 0.0 | 1.0 | 0.08 | 0.25 | 0.23 | 98 | 1011.1 |
| 20260507083044 | 68 | 359 | 0.0 | 0.0 | 0.08 | 0.25 | 0.23 | 98 | 1011.2 |
| 20260507082544 | 68 | 359 | 0.0 | 1.0 | 0.09 | 0.25 | 0.23 | 97 | 1011.2 |
| 20260507082043 | 68 | 359 | 0.0 | 1.0 | 0.09 | 0.25 | 0.23 | 97 | 1011.2 |
| 20260507081644 | 69 | 359 | 0.0 | 1.0 | 0.08 | 0.24 | 0.22 | 97 | 1011.4 |
| 20260507081043 | 69 | 359 | 0.0 | 1.0 | 0.09 | 0.24 | 0.22 | 97 | 1011.5 |
| 20260507080541 | 69 | 299 | 0.0 | 1.0 | 0.10 | 0.23 | 0.21 | 97 | 1011.9 |
| 20260507080041 | 69 | 299 | 0.0 | 1.0 | 0.11 | 0.23 | 0.21 | 97 | 1012.0 |
| 20260507075540 | 69 | 299 | 0.0 | 1.0 | 0.12 | 0.22 | 0.20 | 97 | 1012.4 |
| 20260507075040 | 69 | 299 | 0.0 | 1.0 | 0.14 | 0.21 | 0.19 | 97 | 1012.5 |
| 20260507074540 | 69 | 299 | 0.0 | 1.0 | 0.16 | 0.19 | 0.17 | 97 | 1012.3 |
| 20260507074039 | 69 | 299 | 0.0 | 2.0 | 0.16 | 0.18 | 0.16 | 97 | 1012.4 |
| 20260507073539 | 69 | 299 | 0.0 | 3.0 | 0.15 | 0.17 | 0.15 | 97 | 1012.3 |
| 20260507073038 | 69 | 231 | 0.0 | 4.0 | 0.15 | 0.17 | 0.15 | 96 | 1012.4 |
| 20260507072538 | 69 | 241 | 1.0 | 5.0 | 0.15 | 0.17 | 0.15 | 96 | 1012.4 |
| 20260507072036 | 69 | 269 | 2.0 | 8.0 | 0.14 | 0.16 | 0.14 | 96 | 1012.5 |
| 20260507071638 | 69 | 237 | 3.0 | 9.0 | 0.14 | 0.16 | 0.14 | 96 | 1012.8 |
| 20260507071043 | 69 | 231 | 2.0 | 8.0 | 0.14 | 0.16 | 0.14 | 96 | 1012.8 |
| 20260507070540 | 70 | 217 | 4.0 | 8.0 | 0.12 | 0.14 | 0.12 | 96 | 1012.8 |
| 20260507070044 | 70 | 238 | 2.0 | 11.0 | 0.10 | 0.12 | 0.10 | 95 | 1012.9 |
| 20260507065539 | 70 | 221 | 4.0 | 17.0 | 0.09 | 0.11 | 0.09 | 94 | 1013.2 |
| 20260507065037 | 71 | 243 | 6.0 | 17.0 | 0.07 | 0.09 | 0.07 | 94 | 1013.3 |
| 20260507064559 | 71 | 220 | 3.0 | 13.0 | 0.03 | 0.05 | 0.03 | 93 | 1013.3 |
| 20260507064036 | 71 | 211 | 5.0 | 13.0 | 0.00 | 0.02 | 0.00 | 93 | 1013.2 |
| 20260507063534 | 71 | 229 | 3.0 | 9.0 | 0.00 | 0.02 | 0.00 | 93 | 1013.1 |
| 20260507063035 | 71 | 233 | 3.0 | 9.0 | 0.00 | 0.02 | 0.00 | 93 | 1013.0 |
| 20260507062535 | 71 | 227 | 2.0 | 8.0 | 0.00 | 0.02 | 0.00 | 93 | 1013.0 |
| 20260507062034 | 71 | 252 | 2.0 | 7.0 | 0.00 | 0.02 | 0.00 | 93 | 1012.6 |
| 20260507061635 | 71 | 237 | 2.0 | 8.0 | 0.00 | 0.02 | 0.00 | 93 | 1012.5 |
| 20260507061030 | 71 | 310 | 4.0 | 8.0 | 0.00 | 0.02 | 0.00 | 93 | 1012.5 |
| 20260507060529 | 71 | 210 | 2.0 | 7.0 | 0.00 | 0.02 | 0.00 | 93 | 1012.5 |